Date String (YYYY-MM-DD hh:mm:ss) UTC,Instrument flags,Ambient pressure (hPa),Sample flow (lpm),Bypass flow (lpm),Sample temperature (°C),Ambient temperature (°C),ASC tube jacket temperature (°C),LED temperature (°C),Box temperature (°C),Sample RH (%),Span deviation,Mass concentration (μg/m³),Mass concentration (μg/m³),Mass concentration (μg/m³)
DateTimeUTC,F1_M11,P_M11,Q1_M11,Q2_M11,T1_M11,T2_M11,T3_M11,T4_M11,T5_M11,U1_M11,ZSPAN_M11,X0_M11,X2_M11,X1_M11
2022-05-13 18:00:00,,0826.5,5.00,0.00,28.1,27.3,00.0,37.1,29.8,07.7,0000.0,0007.05,0003.05,0001.81
2022-05-13 18:01:00,,0826.5,5.00,0.00,28.1,27.3,00.0,37.1,29.9,07.8,0000.0,0007.34,0003.07,0001.80
2022-05-13 18:02:00,,0826.5,4.99,0.00,28.2,27.3,00.0,37.1,29.9,08.0,0000.0,0007.87,0003.02,0001.79
2022-05-13 18:03:00,,0826.5,5.01,0.00,28.2,27.4,00.0,37.1,29.9,07.7,0000.0,0007.65,0002.96,0001.78
2022-05-13 18:04:00,,0826.5,4.99,0.00,28.2,27.4,00.0,37.1,29.9,07.9,0000.0,0007.40,0002.93,0001.78
2022-05-13 18:05:00,,0826.5,5.00,0.00,28.2,27.4,00.0,37.1,30.0,07.7,0000.0,0007.49,0002.93,0001.77
2022-05-13 18:06:00,,0826.5,5.01,0.00,28.3,27.4,00.0,37.1,30.0,07.0,0000.0,0007.50,0002.92,0001.76
2022-05-13 18:07:00,,0826.5,5.00,0.00,28.3,27.4,00.0,37.1,30.1,06.9,0000.0,0007.62,0002.90,0001.75
2022-05-13 18:08:00,,0826.5,5.00,0.00,28.3,27.4,00.0,37.2,30.1,07.1,0000.0,0007.63,0002.90,0001.75
2022-05-13 18:09:00,,0826.5,5.01,0.00,28.3,27.5,00.0,37.2,30.1,07.3,0000.0,0007.64,0002.94,0001.75
2022-05-13 18:10:00,,0826.4,4.99,0.00,28.3,27.5,00.0,37.2,30.1,07.2,0000.0,0007.49,0002.93,0001.76
2022-05-13 18:11:00,,0826.4,5.01,0.00,28.3,27.5,00.0,37.2,30.2,07.6,0000.0,0006.92,0002.94,0001.77
2022-05-13 18:12:00,,0826.3,4.99,0.00,28.3,27.5,00.0,37.2,30.1,07.7,0000.0,0007.20,0002.95,0001.77
2022-05-13 18:13:00,,0826.4,5.00,0.00,28.3,27.5,00.0,37.2,30.1,07.0,0000.0,0006.64,0002.90,0001.76
2022-05-13 18:14:00,,0826.2,5.01,0.00,28.3,27.5,00.0,37.2,30.0,06.9,0000.0,0006.56,0002.94,0001.76
2022-05-13 18:15:00,,0826.1,5.00,0.00,28.3,27.5,00.0,37.2,30.1,07.1,0000.0,0007.00,0002.99,0001.77
2022-05-13 18:16:00,,0826.2,4.99,0.00,28.3,27.4,00.0,37.2,30.1,07.2,0000.0,0007.48,0003.05,0001.80
2022-05-13 18:17:00,,0826.2,5.00,0.00,28.3,27.5,00.0,37.2,30.1,07.3,0000.0,0007.61,0003.12,0001.80
2022-05-13 18:18:00,,0826.2,5.01,0.00,28.3,27.4,00.0,37.2,30.0,07.3,0000.0,0007.57,0003.14,0001.80
2022-05-13 18:19:00,,0826.2,4.99,0.00,28.3,27.4,00.0,37.2,30.0,07.2,0000.0,0007.51,0003.12,0001.80
2022-05-13 18:20:00,,0826.2,5.00,0.00,28.2,27.4,00.0,37.2,30.0,07.5,0000.0,0007.48,0003.12,0001.80
2022-05-13 18:21:00,,0826.2,4.99,0.00,28.2,27.4,00.0,37.2,30.0,07.7,0000.0,0007.49,0003.11,0001.80
2022-05-13 18:22:00,,0826.1,5.00,0.00,28.2,27.4,00.0,37.2,30.0,07.6,0000.0,0007.45,0003.07,0001.80
2022-05-13 18:23:00,,0826.1,5.01,0.00,28.2,27.4,00.0,37.2,30.0,07.1,0000.0,0007.04,0003.04,0001.80
2022-05-13 18:24:00,,0826.1,4.99,0.00,28.2,27.4,00.0,37.2,30.0,07.3,0000.0,0006.69,0003.07,0001.80
2022-05-13 18:25:00,,0826.1,5.01,0.00,28.2,27.4,00.0,37.2,30.0,07.2,0000.0,0006.80,0003.07,0001.81
2022-05-13 18:26:00,,0826.1,4.99,0.00,28.2,27.4,00.0,37.2,30.0,07.8,0000.0,0006.34,0002.98,0001.80
2022-05-13 18:27:00,,0826.0,5.00,0.00,28.2,27.4,00.0,37.2,30.0,08.0,0000.0,0006.52,0002.97,0001.79
2022-05-13 18:28:00,,0826.1,5.01,0.00,28.2,27.4,00.0,37.2,29.9,07.8,0000.0,0006.57,0002.91,0001.80
2022-05-13 18:29:00,,0826.1,5.00,0.00,28.2,27.5,00.0,37.2,29.9,07.2,0000.0,0006.39,0002.86,0001.80
2022-05-13 18:30:00,,0826.1,4.99,0.00,28.2,27.5,00.0,37.2,30.0,07.4,0000.0,0006.72,0002.93,0001.80
2022-05-13 18:31:00,,0826.0,4.99,0.00,28.2,27.4,00.0,37.2,30.0,07.3,0000.0,0007.07,0002.97,0001.80
2022-05-13 18:32:00,,0826.0,5.00,0.00,28.2,27.5,00.0,37.2,30.0,07.3,0000.0,0007.35,0003.03,0001.80
2022-05-13 18:33:00,,0826.0,4.99,0.00,28.2,27.5,00.0,37.2,30.0,07.4,0000.0,0007.43,0002.98,0001.78
2022-05-13 18:34:00,,0826.0,5.01,0.00,28.2,27.4,00.0,37.2,30.0,07.1,0000.0,0007.47,0002.98,0001.77
2022-05-13 18:35:00,,0825.9,4.98,0.00,28.2,27.4,00.0,37.2,30.0,06.9,0000.0,0007.36,0002.97,0001.79
2022-05-13 18:36:00,,0825.9,5.01,0.00,28.2,27.4,00.0,37.2,30.0,07.5,0000.0,0007.25,0002.98,0001.80
2022-05-13 18:37:00,,0825.9,4.99,0.00,28.2,27.4,00.0,37.2,30.0,07.5,0000.0,0007.22,0003.05,0001.82
2022-05-13 18:38:00,,0825.9,5.01,0.00,28.2,27.4,00.0,37.2,30.0,07.6,0000.0,0006.58,0003.09,0001.83
2022-05-13 18:39:00,,0825.9,5.00,0.00,28.2,27.4,00.0,37.2,30.0,07.4,0000.0,0006.32,0003.08,0001.84
2022-05-13 18:40:00,,0825.9,4.99,0.00,28.2,27.5,00.0,37.2,29.9,07.3,0000.0,0006.49,0003.12,0001.86
2022-05-13 18:41:00,,0825.9,5.00,0.00,28.2,27.5,00.0,37.2,29.9,07.3,0000.0,0006.89,0003.12,0001.89
2022-05-13 18:42:00,,0825.9,5.00,0.00,28.2,27.5,00.0,37.2,29.9,07.8,0000.0,0007.04,0003.11,0001.91
2022-05-13 18:43:00,,0825.9,5.01,0.00,28.2,27.5,00.0,37.2,30.0,07.4,0000.0,0007.29,0003.09,0001.92
2022-05-13 18:44:00,,0825.8,5.00,0.00,28.2,27.5,00.0,37.2,30.0,07.4,0000.0,0007.43,0003.17,0001.94
2022-05-13 18:45:00,,0825.7,4.99,0.00,28.2,27.5,00.0,37.2,30.0,07.0,0000.0,0007.50,0003.21,0001.97
2022-05-13 18:46:00,,0825.7,5.00,0.00,28.2,27.5,00.0,37.2,30.0,07.4,0000.0,0007.62,0003.25,0001.98
2022-05-13 18:47:00,,0825.7,5.00,0.00,28.2,27.5,00.0,37.2,30.0,06.9,0000.0,0007.79,0003.30,0002.00
2022-05-13 18:48:00,,0825.8,5.01,0.00,28.2,27.5,00.0,37.2,30.0,06.8,0000.0,0007.89,0003.33,0002.01
2022-05-13 18:49:00,,0825.9,4.99,0.00,28.2,27.4,00.0,37.2,30.0,06.8,0000.0,0007.88,0003.33,0002.02
2022-05-13 18:50:00,,0825.8,5.01,0.00,28.2,27.4,00.0,37.2,30.0,07.2,0000.0,0007.81,0003.31,0002.03
2022-05-13 18:51:00,,0825.9,4.99,0.00,28.2,27.5,00.0,37.2,30.0,07.9,0000.0,0007.91,0003.34,0002.03
2022-05-13 18:52:00,,0825.8,5.01,0.00,28.2,27.5,00.0,37.2,30.0,07.6,0000.0,0007.57,0003.31,0002.02
2022-05-13 18:53:00,,0825.8,4.99,0.00,28.2,27.5,00.0,37.2,30.0,07.5,0000.0,0007.25,0003.30,0002.03
2022-05-13 18:54:00,,0825.8,5.00,0.00,28.2,27.6,00.0,37.2,30.0,07.5,0000.0,0006.65,0003.27,0002.04
2022-05-13 18:55:00,,0825.7,4.99,0.00,28.3,27.6,00.0,37.2,30.0,07.8,0000.0,0006.57,0003.28,0002.05
2022-05-13 18:56:00,,0825.9,5.01,0.00,28.3,27.6,00.0,37.2,30.1,07.4,0000.0,0006.49,0003.27,0002.06
2022-05-13 18:57:00,,0825.9,4.99,0.00,28.3,27.6,00.0,37.2,30.1,07.1,0000.0,0006.15,0003.21,0002.05
2022-05-13 18:58:00,,0825.9,5.02,0.00,28.3,27.7,00.0,37.2,30.1,07.5,0000.0,0005.83,0003.15,0002.02
2022-05-13 18:59:00,,0826.0,4.99,0.00,28.4,27.7,00.0,37.2,30.2,07.2,0000.0,0005.69,0003.11,0002.01
